Location: Unspecified
(0.0000°N, 0.0000°E)
Time: 11:49:10
(UTC+00:00)

Envisat - Pass Details

Date: 18 March 2019
Orbit: 764 x 766 km, 98.2° (Epoch: 24 March)

Event Time Altitude Azimuth Distance (km) Brightness Sun altitude
Rises 19:13:04 0° 173° (S) 3,231 6.2 -16.2°
Reaches altitude 10° 19:15:23 10° 176° (S) 2,302 5.4 -16.8°
Maximum altitude 19:20:25 66° 258° (WSW) 830 3.4 -18.1°
Drops below altitude 10° 19:25:25 10° 340° (NNW) 2,291 5.7 -19.3°
Sets 19:27:44 0° 343° (NNW) 3,214 6.4 -19.9°
